Theta_e
306 299 295 298 300 296 293 293 293 296 301 300 298 297 302 304 301 298 299 300 303 312 318 320 321 322 320 322 324 325 324 324 324 323 322 322 321 323 323 324 325 325 325 325
299 294 300 301 302 299 297 293 292 296 299 298 297 295 300 302 300 302 303 302 301 302 309 316 319 321 322 321 322 324 324 325 325 325 325 325 325 324 325 326 325 325 325 325
295 297 301 300 299 297 297 295 292 292 297 296 294 293 297 300 301 302 302 305 305 305 305 306 315 320 322 322 321 322 324 326 326 326 326 323 324 322 323 323 324 325 326 325
297 301 299 298 297 298 293 299 297 295 293 288 295 285 294 297 300 300 302 303 303 303 305 306 305 315 320 322 324 323 323 325 325 327 325 324 324 322 324 325 326 325 326 326
293 296 295 296 296 300 294 299 297 296 293 292 290 288 291 295 296 299 303 303 305 306 305 306 306 306 317 322 323 324 324 323 325 325 327 325 324 326 327 326 324 325 324 326
295 296 298 297 300 301 302 298 297 296 294 285 291 289 289 294 296 298 302 302 305 307 306 307 309 309 307 317 321 323 323 323 323 324 325 325 325 325 324 322 322 322 324 323
290 291 296 300 295 299 298 295 285 284 283 283 291 288 292 295 296 298 300 300 303 305 305 306 306 304 306 310 318 321 321 321 323 322 323 325 325 325 324 322 322 322 321 321
285 279 291 297 295 294 294 292 286 281 282 284 287 286 291 299 303 304 303 300 299 300 300 303 305 305 305 306 314 319 320 320 321 322 322 324 324 324 324 324 323 322 322 322
283 283 290 294 295 295 294 290 295 285 276 278 284 287 293 294 295 296 297 297 298 299 298 297 299 301 303 304 309 316 318 319 319 320 321 321 323 322 322 323 322 322 323 321
286 279 288 291 295 296 294 299 287 288 280 278 281 283 287 290 296 300 299 297 299 299 298 297 297 297 298 300 306 312 316 317 319 319 320 320 321 321 322 321 320 321 321 321
288 285 284 290 289 288 290 289 292 290 285 281 276 283 288 293 295 298 301 301 298 298 298 298 295 294 296 296 299 308 311 313 314 317 318 318 318 319 320 319 320 320 320 319
288 284 277 283 289 292 292 291 291 285 283 284 281 286 290 294 294 294 297 296 296 296 298 296 293 293 294 295 295 298 306 309 311 312 313 315 315 316 317 318 318 318 319 319
290 284 273 278 283 288 288 292 292 292 290 283 283 287 288 288 289 290 291 293 293 294 295 293 292 292 294 295 295 297 300 305 306 307 309 308 310 312 314 315 315 316 317 318
294 283 281 278 279 283 283 287 291 291 285 286 287 289 294 287 288 289 291 292 293 292 292 291 292 293 294 295 295 295 297 300 301 303 304 304 304 305 305 304 307 308 309 308
291 282 281 284 284 282 284 285 287 287 289 286 290 290 294 296 290 290 291 291 291 292 291 291 292 293 294 294 295 296 296 296 297 297 298 297 297 298 299 301 302 302 301 302
287 283 284 280 283 284 282 285 288 289 290 290 291 291 299 297 294 292 292 290 291 292 292 291 291 292 293 294 295 296 297 297 297 297 295 295 296 295 294 295 295 295 296 297
285 283 280 275 282 282 279 283 285 287 291 292 288 293 297 297 295 293 294 292 291 292 292 292 292 293 293 295 296 296 297 296 296 295 294 293 293 291 291 291 291 291 291 291
284 283 282 270 278 272 281 287 289 287 289 292 293 294 295 297 298 295 296 298 296 292 293 293 293 293 293 294 295 296 296 296 294 292 291 290 290 290 290 290 290 291 292 291
286 278 272 275 270 276 282 286 285 285 286 292 293 295 296 296 290 296 295 298 298 295 295 294 293 293 292 293 293 294 293 293 291 290 290 289 290 289 289 288 290 290 289 288
286 284 273 275 266 266 278 287 291 293 283 292 294 294 294 292 290 297 297 292 292 292 291 292 292 291 292 292 293 293 292 291 291 290 290 289 289 289 289 288 288 286 287 286
281 280 275 273 269 274 283 286 291 284 283 289 292 295 296 293 298 299 298 293 293 292 291 291 291 292 293 291 292 291 290 291 290 289 288 288 288 289 288 287 287 287 286 286
278 276 275 277 269 269 284 284 286 291 290 287 291 290 291 295 299 298 300 295 292 290 289 290 288 288 288 289 291 290 291 288 288 288 288 288 287 287 287 287 286 286 286 285
278 280 276 279 279 284 285 287 291 290 290 291 290 293 292 291 292 294 295 294 293 288 287 287 288 286 285 287 291 290 287 287 287 288 288 287 287 287 287 287 286 287 286 287
281 285 280 281 283 286 289 289 290 291 290 292 291 290 290 290 290 289 289 290 290 286 285 284 285 285 285 284 285 288 286 287 288 288 288 287 287 286 286 287 287 287 287 286
280 284 281 280 284 286 289 291 292 290 289 289 289 287 289 288 288 287 287 287 288 286 281 284 287 287 287 284 284 285 286 288 288 288 287 287 287 286 285 285 285 285 285 288
281 281 279 277 284 288 289 292 291 289 290 291 288 288 288 286 289 287 286 285 283 283 280 282 282 282 283 285 285 285 287 289 288 287 287 287 286 285 284 284 284 287 287 287
Wind_Speed
13 10 18 25 26 3 6 5 11 4 5 6 8 11 15 9 6 7 10 11 11 13 14 8 12 13 12 12 13 14 14 14 11 8 8 8 8 8 7 8 11 11 9 10
8 20 28 15 13 15 7 2 4 3 5 5 5 11 14 13 9 14 15 11 12 9 7 10 12 13 16 16 16 15 16 15 13 10 9 5 7 7 8 7 9 11 11 10
21 10 17 18 15 19 19 17 6 4 1 2 4 13 19 12 15 15 14 16 12 15 14 12 11 16 15 17 18 17 18 17 15 15 8 4 3 1 5 7 8 10 11 11
11 9 9 18 16 22 21 20 13 10 2 8 8 9 12 5 18 17 18 17 18 14 13 14 12 14 16 18 16 19 18 18 16 17 13 15 12 12 10 9 8 9 12 12
12 4 17 12 22 17 13 11 16 15 11 6 6 6 5 8 15 14 17 19 20 19 18 18 17 17 16 18 18 17 18 17 16 18 17 13 14 11 8 7 9 11 9 12
5 1 4 12 8 12 0 3 9 13 11 12 20 14 10 13 13 14 16 16 19 20 17 19 19 16 15 14 14 14 17 19 18 17 19 18 18 14 9 9 9 8 7 8
10 12 3 3 3 11 8 6 6 10 10 10 15 10 23 7 7 10 13 13 17 17 15 17 17 12 13 14 16 14 17 19 18 19 19 21 20 17 16 13 10 10 7 7
13 5 16 13 11 3 16 17 8 5 4 11 4 14 11 13 22 22 17 13 7 8 10 13 13 14 15 15 16 16 17 18 17 18 19 18 18 12 12 12 10 9 9 9
12 10 3 12 8 15 3 17 5 2 1 3 5 11 7 7 9 11 13 8 14 14 10 11 10 9 10 10 15 17 17 16 16 18 15 15 14 14 13 13 11 9 8 7
6 1 5 5 6 7 14 2 5 6 5 5 8 9 8 8 18 20 13 14 12 7 10 8 9 9 8 8 8 10 14 17 14 15 13 12 13 12 11 8 10 10 9 8
5 4 1 7 8 11 6 11 8 3 5 5 3 8 9 13 13 14 16 13 8 8 9 9 8 5 6 5 7 8 9 9 8 11 12 11 10 10 9 9 9 9 7 8
6 5 4 7 3 2 9 12 15 10 4 3 2 21 4 9 7 3 8 9 5 6 8 7 7 6 5 6 6 7 7 9 9 8 9 10 8 8 8 8 6 6 8 6
11 5 3 4 5 1 6 10 12 10 6 6 6 21 4 4 5 6 8 10 6 6 8 7 6 7 6 4 4 5 5 6 6 7 7 6 7 7 7 6 5 5 5 5
16 4 7 15 10 3 8 16 11 16 15 20 15 31 18 5 8 5 7 9 8 6 7 5 5 6 4 4 7 6 6 5 6 6 7 7 7 6 6 6 6 5 5 5
7 6 5 11 7 3 3 8 19 20 23 17 22 25 27 15 8 8 8 6 7 7 6 7 7 6 7 8 5 4 6 6 5 7 7 6 6 7 7 7 6 6 6 5
3 2 1 9 9 9 15 18 13 14 22 21 27 33 24 11 9 9 10 6 9 8 9 8 8 8 10 9 8 7 6 8 6 6 6 7 8 7 7 7 6 6 6 5
6 5 3 4 3 2 8 25 27 26 19 19 20 31 20 19 16 9 9 12 15 12 11 10 12 12 9 10 11 10 9 7 7 8 7 8 9 9 8 8 7 7 6 5
7 8 5 5 2 5 11 5 13 26 30 21 22 30 27 13 12 12 15 18 18 12 12 13 11 9 9 7 8 8 10 9 9 8 8 8 8 8 7 7 7 7 5 6
7 6 3 4 5 7 11 6 6 10 30 29 25 33 22 12 1 19 19 17 18 11 15 9 7 6 7 8 7 9 9 9 9 10 10 9 9 9 8 9 8 6 7 5
3 4 5 2 4 10 3 4 4 2 20 11 26 38 32 5 11 29 8 10 14 11 7 10 10 8 10 10 11 13 12 11 11 11 10 9 9 10 9 8 7 3 4 6
5 3 8 4 4 10 10 10 3 6 3 3 10 15 14 16 26 10 7 8 9 10 11 7 8 13 14 12 13 12 11 12 9 10 10 9 8 10 10 8 6 7 7 7
9 8 5 4 4 10 6 4 10 6 3 5 4 4 4 10 11 10 14 9 8 9 9 11 11 9 8 8 11 12 11 8 10 11 11 10 9 8 8 11 7 8 8 8
7 9 7 11 10 5 4 4 6 2 3 8 7 17 9 8 5 8 9 9 10 8 8 6 10 8 6 11 12 14 10 12 13 13 13 11 11 10 10 11 10 9 6 7
4 6 4 2 5 7 8 7 6 5 8 13 10 11 9 10 8 10 9 9 11 8 10 7 11 11 11 9 8 8 14 13 15 13 13 12 11 10 8 6 7 8 7 7
6 6 6 6 9 7 12 14 11 8 7 10 10 7 11 7 13 10 8 10 9 8 4 9 13 14 14 10 8 11 15 15 15 14 11 11 10 10 8 6 5 5 2 6
6 6 4 6 8 8 12 7 6 8 13 13 8 10 9 4 15 8 11 8 6 8 5 7 8 7 10 12 11 13 15 17 18 15 12 10 10 9 9 10 10 13 13 16
Wind_Direction
191 201 203 214 210 11 131 163 210 202 199 169 221 245 253 252 225 256 246 233 229 224 238 196 207 201 195 196 197 199 187 193 184 187 195 213 215 213 220 217 212 211 212 211
203 219 215 217 212 222 240 176 214 226 192 195 226 255 269 251 235 225 235 237 230 235 214 214 203 199 200 198 204 203 202 196 193 193 204 200 193 210 219 212 211 215 210 206
229 231 219 209 220 205 224 229 197 224 205 260 351 270 260 248 236 232 229 238 240 227 232 232 201 205 203 206 202 204 203 199 197 197 188 162 165 149 191 211 215 214 213 207
228 240 188 227 226 210 225 216 230 225 206 244 168 274 254 239 232 223 229 226 233 229 229 234 210 212 204 214 205 208 204 200 197 190 191 199 207 213 216 217 213 211 210 215
204 112 211 223 222 207 241 191 200 217 234 259 228 272 243 221 237 239 231 226 226 222 218 225 219 208 207 208 207 204 201 202 196 195 198 200 211 220 215 204 199 206 205 213
190 91 169 240 218 221 305 163 188 215 213 230 227 213 217 224 218 247 243 230 229 229 214 224 229 219 212 199 199 197 198 203 197 194 199 202 211 213 204 199 205 207 204 206
206 222 146 120 260 213 236 189 188 209 214 226 200 211 240 231 225 228 240 233 229 224 218 220 222 214 209 196 192 195 198 206 197 194 198 204 209 208 210 202 205 200 197 204
199 221 181 174 197 174 220 226 227 231 216 222 109 223 240 229 231 243 240 244 247 234 231 231 224 218 217 206 196 193 193 204 198 198 202 206 207 208 212 209 203 208 205 208
190 230 118 182 156 178 167 212 172 118 335 16 194 273 285 241 258 253 255 232 242 232 229 235 233 220 211 205 202 198 197 200 195 201 203 206 206 207 209 208 200 203 205 201
189 156 192 150 111 206 231 266 164 206 250 232 228 259 223 216 220 235 237 238 246 224 228 227 234 228 211 206 207 198 202 200 193 190 194 202 202 205 206 186 192 199 205 198
141 116 328 119 180 171 184 230 241 155 221 188 265 259 202 199 216 227 237 242 244 246 228 227 233 232 222 202 196 199 188 178 178 181 187 188 190 189 185 190 200 201 194 186
181 130 171 196 62 75 210 216 220 250 247 220 188 268 191 225 232 270 271 283 253 228 242 212 226 182 180 180 181 194 189 186 184 172 165 181 175 173 182 193 184 177 199 190
155 202 99 3 354 107 205 223 228 224 247 208 243 257 198 225 278 244 256 270 276 249 254 190 193 206 182 168 171 175 196 190 164 161 158 154 156 157 165 164 158 164 174 177
152 123 195 225 216 144 200 228 227 234 241 252 236 264 253 278 244 245 258 264 277 243 239 223 194 185 200 193 177 163 162 175 160 153 150 151 155 152 138 127 125 119 108 105
140 208 183 251 262 348 304 262 228 218 233 242 255 256 260 255 272 253 252 241 271 281 254 213 199 204 178 183 220 178 146 147 147 136 134 137 124 116 119 117 111 101 93 94
57 158 125 269 277 246 261 271 275 250 242 240 247 258 254 283 242 241 270 281 256 242 235 223 211 189 194 191 178 170 166 149 140 130 125 122 117 112 114 118 117 105 98 91
127 111 106 245 55 94 269 238 238 237 231 213 231 238 261 249 244 243 255 243 240 219 224 211 211 201 200 187 173 174 159 130 132 129 132 133 133 130 128 124 118 112 114 116
154 159 164 238 98 235 237 261 236 242 242 237 251 259 249 232 258 227 232 237 245 228 224 216 205 206 181 177 160 145 146 147 142 138 138 136 133 125 123 118 118 119 114 109
147 127 167 170 198 288 280 239 191 200 252 231 234 253 254 241 215 260 232 236 242 227 230 221 186 180 142 155 155 143 141 146 144 149 149 149 142 137 135 129 130 116 115 111
126 106 120 128 177 219 233 200 236 109 263 233 227 244 252 204 231 249 183 189 230 222 199 191 175 163 158 173 160 157 163 157 164 161 155 150 143 137 136 130 120 93 93 107
176 169 206 213 262 284 245 253 189 173 195 48 25 298 230 207 227 234 219 218 213 209 196 174 187 184 186 157 156 162 159 176 157 143 142 140 140 138 132 120 118 118 118 108
166 168 178 190 219 282 217 131 166 248 240 233 306 296 71 285 288 244 250 244 222 200 182 192 178 179 159 157 161 154 175 146 138 142 141 142 134 129 127 127 123 128 125 128
195 186 177 189 208 264 281 264 297 291 312 311 309 315 303 285 293 298 269 262 253 213 204 192 177 169 164 169 177 169 156 150 144 144 142 137 132 134 137 138 137 127 142 139
254 182 222 78 263 265 302 291 243 295 279 304 300 290 291 284 283 273 279 258 247 205 200 174 160 174 181 180 171 153 145 149 144 144 140 136 133 132 127 126 132 143 146 137
197 135 205 263 270 277 269 265 279 300 305 298 298 267 277 282 279 255 265 267 248 234 189 175 186 183 183 170 164 149 146 148 141 140 140 134 130 131 122 101 119 134 122 151
188 207 177 245 253 253 276 290 315 320 313 294 300 317 300 251 286 280 276 260 229 214 179 181 175 165 161 166 157 154 155 155 146 142 146 148 138 138 130 122 109 82 102 108